Location: Newark
(45.4981°N, 4.1681°E)
Time: 03:58:18
(UTC+00:00)

ISS - Visible Passes

Search period start: 16 September 2019 00:00
Search period end: 26 September 2019 00:00
Orbit: 411 x 421 km, 51.6° (Epoch: 16 September)

Date Brightness Start Highest point End Pass type
(mag) Time Alt. Az. Time Alt. Az. Time Alt. Az.
16 Sep -1.5 04:20:23 11° SSW 04:20:23 11° SSW 04:20:41 10° SSW visible
18 Sep -1.8 19:23:48 10° SSW 19:24:55 17° S 19:24:55 17° S visible
19 Sep -2.0 18:36:11 10° S 18:38:18 16° SE 18:39:17 14° ESE visible
19 Sep -1.3 20:11:19 10° WSW 20:12:14 17° WSW 20:12:14 17° WSW visible
20 Sep -3.9 19:22:54 10° SW 19:26:11 63° SSE 19:26:20 62° SE visible
21 Sep -3.2 18:34:38 10° SSW 18:37:45 38° SE 18:40:13 15° ENE visible
21 Sep -1.7 20:11:17 10° W 20:13:08 27° WNW 20:13:08 27° WNW visible
22 Sep -3.4 19:22:37 10° WSW 19:25:55 60° NNW 19:26:50 40° NE visible
23 Sep -3.8 18:34:02 10° WSW 18:37:22 88° NNW 18:40:23 12° ENE visible
23 Sep -1.4 20:11:25 10° WNW 20:13:17 24° NW 20:13:17 24° NW visible
24 Sep -2.4 19:22:38 10° W 19:25:44 35° NNW 19:26:45 28° NNE visible
25 Sep -2.9 18:33:53 10° W 18:37:06 45° NNW 18:40:07 11° NE visible
25 Sep -1.2 20:11:27 10° WNW 20:13:00 20° NW 20:13:00 20° NW visible
